#timestamp,LO_Frequency,Hit,StdDev 
1522375215.4,286047001.0,N
1522375235.2,286046996.5,N
1522375255.1,286046999.6,N
1522375256.0,286046999.6,N
1522375275.8,286046998.1,N
1522375295.6,286046999.4,N
1522375315.5,286046996.5,N
1522375335.3,286046997.1,N
1522375355.2,286046996.9,N
1522375375.9,286046997.7,N
1522375395.7,286046996.9,N
1522375415.6,286046998.7,N
1522375435.4,286046999.4,N
1522375455.3,286047001.2,N
1522375475.1,286046998.5,N
1522375476.0,286046998.5,N
1522375495.8,286046999.4,N
1522375515.7,286046997.3,N
1522375535.5,286046995.8,N
1522375555.4,286046995.7,N
1522375575.2,286046995.8,N
1522375595.0,286046995.7,N
1522375595.9,286046995.7,N
1522375615.8,286046995.4,N
1522375635.6,286046995.4,N
1522375655.4,286046997.8,N
1522375675.3,286046995.5,N
1522375695.1,286046995.3,N
1522375715.9,286046995.5,N
1522375735.7,286046995.6,N
1522375755.5,286046997.9,N
1522375775.4,286046997.8,N
1522375795.2,286046995.3,N
1522375815.0,286046997.6,N
1522375815.9,286046997.6,N
1522375835.8,286046996.6,N
1522375855.6,286046998.0,N
1522375875.5,286046995.6,N
1522375895.3,286046997.8,N
1522375915.1,286046999.2,N
1522375935.9,286046999.4,N
1522375955.7,286046997.0,N
1522375975.5,286046997.6,N
1522375995.4,286046995.0,Y
1522376015.2,286046998.7,P
1522376035.1,286046998.4,N
1522376036.0,286046998.4,N
1522376055.8,286046999.4,N
1522376075.6,286046998.3,N
1522376095.5,286047000.2,N
1522376115.3,286047000.3,N
1522376135.2,286047002.2,N
1522376155.9,286047003.2,N
1522376175.7,286047005.6,Y
1522376195.6,286047003.8,P
1522376215.4,286047001.7,N
1522376235.2,286047002.4,N
1522376255.1,286047000.0,N
1522376256.0,286047000.0,N
1522376275.8,286047001.8,N
1522376295.7,286047000.1,N
1522376315.5,286047000.9,N
1522376335.3,286046998.7,N
1522376355.2,286046999.1,N
1522376375.0,286047002.8,N
1522376375.9,286047002.8,N
1522376395.8,286047001.9,N
1522376415.6,286046999.8,N
1522376435.4,286046999.7,N
1522376455.3,286047001.8,N
1522376475.1,286047002.1,N
1522376495.9,286047002.6,N
1522376515.7,286047002.8,N
1522376535.5,286046999.7,N
1522376555.4,286047002.5,N
1522376575.2,286047001.2,N
1522376595.0,286047000.3,N
1522376595.9,286047000.3,N
1522376615.8,286047001.1,N
1522376635.6,286047001.0,N
1522376655.5,286046998.6,N
1522376675.3,286046998.4,N
1522376695.1,286046999.4,N
1522376715.9,286046998.2,N
1522376735.7,286047001.1,N
1522376755.6,286047000.8,N
1522376775.4,286047004.4,Y
1522376795.2,286047002.8,P
1522376815.1,286047000.6,N
1522376816.0,286047000.6,N
1522376835.8,286046996.5,Y
1522376855.7,286046994.9,P
1522376875.5,286046997.3,N
1522376895.3,286047000.5,N
1522376915.2,286046998.7,N
1522376935.0,286046998.4,N
1522376935.9,286046998.4,N
1522376955.7,286047000.3,N
1522376975.6,286046998.1,N
1522376995.4,286046998.9,N
1522377015.3,286046998.7,N
1522377035.1,286046998.6,N
1522377055.8,286047001.1,N
1522377075.7,286046998.4,N
1522377095.5,286046999.1,N
1522377115.4,286046999.1,N
1522377135.2,286047000.2,N
1522377155.0,286046998.6,N
1522377155.9,286046998.6,N
1522377175.8,286046998.6,N
1522377195.6,286046999.3,N
1522377215.5,286047000.2,N
1522377235.3,286047000.1,N
1522377255.1,286047002.4,N
1522377275.9,286046998.3,N
1522377295.7,286046998.3,N
1522377315.5,286047001.7,N
1522377335.4,286047001.8,N
1522377355.2,286047001.5,N
1522377375.1,286047004.3,N
1522377376.0,286047004.3,N
1522377395.8,286047003.9,N
1522377415.6,286047002.4,N
1522377435.5,286047002.1,N
1522377455.3,286047000.1,N
1522377475.1,286047002.8,N
1522377495.9,286047002.1,N
1522377515.7,286047003.1,N
1522377535.6,286047002.1,N
1522377555.4,286047001.2,N
1522377575.2,286046999.9,N
1522377595.1,286046998.7,N
1522377596.0,286046998.7,N
1522377615.8,286047001.1,N
1522377635.6,286047001.7,N
1522377655.5,286047001.3,N
1522377675.3,286047004.1,N
1522377695.2,286047004.4,N
1522377715.9,286047002.2,N
1522377735.7,286047002.6,N
1522377755.6,286047005.6,Y
1522377775.4,286047003.6,P
1522377795.2,286047003.9,P
1522377815.1,286047002.7,N
1522377816.0,286047002.7,N
1522377835.8,286046999.9,N
1522377855.7,286047000.6,N
1522377875.5,286047002.0,N
1522377895.3,286047000.9,N
1522377915.2,286046999.8,N
1522377935.0,286046999.4,N
1522377935.9,286046999.4,N
1522377955.8,286046998.9,N
1522377975.6,286046998.3,N
1522377995.4,286046998.9,N
1522378015.3,286046999.4,N
1522378035.1,286046999.3,N
1522378055.8,286046999.5,N
1522378075.7,286046998.8,N
1522378095.5,286046996.5,N
1522378115.4,286046996.7,N
1522378135.2,286046996.8,N
1522378155.0,286046998.0,N
1522378155.9,286046998.0,N
1522378175.8,286046997.6,N
1522378195.6,286046997.9,N
1522378215.4,286046995.8,N
1522378235.3,286046995.4,N
1522378255.1,286046997.3,N
1522378275.9,286046997.8,N
1522378295.7,286046997.3,N
1522378315.5,286046997.9,N
1522378335.4,286046997.5,N
1522378355.2,286046996.2,N
1522378375.0,286046996.1,N
1522378375.9,286046996.1,N
1522378395.8,286046996.0,N
1522378415.6,286046996.3,N
1522378435.5,286046995.9,N
1522378455.3,286046995.9,Y
1522378475.1,286046997.2,P
1522378495.9,286046997.9,P
1522378515.7,286046996.7,P
1522378535.6,286046997.3,Y
1522378555.4,286046998.3,P
1522378575.2,286046998.6,P
1522378595.1,286047001.0,N
1522378596.0,286047001.0,N
1522378615.8,286047001.2,N
1522378635.6,286047000.4,N
1522378655.5,286047000.5,N
1522378675.3,286047000.3,N
1522378695.2,286047000.7,N
1522378715.9,286046998.4,N
1522378735.7,286046999.1,N
1522378755.6,286046997.0,N
1522378775.4,286046996.6,N
1522378795.2,286046997.4,N
